Wetbulb
54.64 53.19 49.67 43.52 37.11 33.04 30.02 34.27 39.32 39.01 41.25 45.48 47.20 45.76 45.27 46.40 45.80 41.78 53.87 57.69 63.18 65.09 67.67 70.36 72.40 73.47 73.72 73.68 73.68 73.28 73.24 73.63 74.26 74.68 74.39 74.22 74.17 74.04 74.14 73.95 73.15 73.19 73.86 73.91 74.10 73.91 73.39 72.84 72.17
52.21 53.22 45.03 37.47 30.93 26.82 31.21 34.21 36.18 41.24 44.17 44.28 45.36 45.48 43.91 44.10 48.07 51.22 52.34 53.58 57.63 65.02 67.73 69.58 70.94 72.80 73.35 73.38 73.35 73.09 73.03 73.31 74.04 74.73 74.54 74.24 74.06 74.03 74.19 73.89 73.00 73.03 73.67 73.89 74.07 73.53 72.90 72.55 71.99
53.76 49.20 41.25 35.57 29.11 27.71 31.13 32.87 37.21 40.61 43.37 42.90 42.69 45.06 44.88 45.57 46.72 49.93 49.81 52.81 55.99 61.06 67.19 69.30 70.02 72.31 73.17 73.06 73.06 72.95 72.82 72.93 73.84 74.70 74.65 74.35 74.12 73.93 73.81 73.46 73.09 73.23 73.50 73.20 73.14 73.27 72.41 72.19 71.53
49.96 45.97 41.06 32.08 28.92 32.10 34.58 34.11 37.36 38.91 40.89 41.45 42.84 41.61 43.38 46.66 46.64 46.14 49.65 51.38 52.67 58.02 66.30 68.79 69.83 72.30 72.76 72.91 72.92 72.87 72.72 72.91 73.49 74.38 74.46 74.38 74.03 73.70 73.32 73.12 72.97 72.93 72.95 72.58 73.25 72.75 72.00 71.67 71.01
44.93 40.20 30.48 30.14 30.58 35.03 35.88 36.93 38.14 36.87 38.16 38.53 41.07 39.97 41.07 44.65 45.78 46.34 47.45 49.20 51.16 55.75 62.43 68.92 69.03 71.10 72.30 72.72 72.74 72.56 72.54 72.65 73.02 73.56 73.99 73.69 73.63 73.23 72.97 72.66 72.53 72.70 72.47 72.63 72.62 72.03 70.66 71.20 70.93
40.03 38.53 28.24 25.29 29.83 34.72 35.74 37.88 37.47 37.25 37.87 38.86 38.26 37.98 41.01 42.96 42.12 43.10 45.06 46.51 49.19 52.49 58.21 66.16 66.67 67.82 69.61 70.95 71.96 71.97 72.02 72.03 72.33 72.74 73.26 73.47 73.16 72.82 72.77 72.44 72.49 72.45 72.23 72.07 71.97 71.25 70.78 70.62 70.48
35.55 34.29 28.62 28.17 28.88 31.17 33.77 38.78 36.82 35.34 36.19 37.10 39.54 36.57 40.84 40.28 42.26 43.57 44.00 45.43 47.35 49.77 54.03 59.65 65.35 67.70 65.35 66.87 68.19 70.18 70.95 71.16 71.19 71.67 72.02 71.92 71.67 71.79 71.91 71.48 71.95 72.29 72.11 71.85 70.76 70.37 70.30 70.22 69.90
36.87 35.67 28.71 28.78 28.32 28.88 34.75 34.63 37.06 35.20 34.74 39.56 41.48 36.40 35.52 39.79 41.97 43.20 43.94 44.47 45.38 47.20 50.29 54.45 61.28 66.44 69.19 69.21 64.98 65.64 67.86 69.32 69.49 69.57 69.06 68.14 67.47 68.58 68.79 68.14 70.43 71.65 71.48 71.06 69.91 69.29 68.73 69.72 69.04
39.68 30.59 25.04 25.29 26.95 30.16 31.24 29.16 33.62 35.43 33.07 35.58 38.62 37.66 39.64 41.53 41.78 40.99 41.05 42.20 43.45 45.17 46.76 49.51 53.14 55.89 63.61 68.96 68.27 64.17 64.83 65.63 66.01 66.92 65.50 65.45 70.80 70.74 68.78 68.15 68.51 70.28 70.06 69.91 69.20 68.54 68.48 67.14 65.67
33.89 28.42 25.85 30.78 28.47 27.00 28.96 28.77 29.08 28.92 29.43 30.07 32.18 36.30 38.92 39.14 38.24 37.65 37.80 37.69 39.75 41.98 44.33 47.08 49.21 51.31 57.81 66.33 67.85 67.51 69.41 69.18 69.42 70.20 70.42 70.36 70.35 70.69 69.40 66.37 64.95 67.10 67.31 68.33 68.45 67.99 65.45 63.60 65.32
26.56 24.23 26.25 27.43 28.87 29.75 27.21 26.74 28.83 26.61 24.55 28.62 28.35 31.19 33.62 34.82 35.77 35.72 36.36 37.79 38.72 41.28 43.48 45.38 47.38 49.79 54.64 60.31 66.60 67.59 68.58 68.68 68.81 69.68 69.75 69.58 69.43 68.36 68.29 68.78 67.35 68.81 63.81 67.91 67.23 65.17 63.06 63.02 62.08
22.49 25.86 26.92 27.81 28.78 27.28 25.41 27.87 25.65 26.79 27.13 31.32 31.51 32.43 32.96 33.11 33.78 34.50 35.45 36.83 37.87 39.98 42.08 44.13 46.66 48.20 50.84 55.38 63.42 66.44 67.62 67.33 67.21 68.14 68.95 68.71 68.03 67.77 67.62 67.63 67.81 67.26 67.27 66.49 65.32 60.61 59.19 59.86 59.37
23.17 23.90 26.19 27.14 26.97 26.55 27.52 25.17 25.15 25.92 29.93 31.86 32.14 32.27 32.01 32.75 33.52 34.83 35.74 36.97 38.31 38.80 40.74 42.24 44.84 47.08 48.74 51.34 55.81 64.61 66.31 67.31 67.08 67.18 67.96 68.37 67.57 66.80 66.72 66.54 66.70 66.15 65.15 63.08 58.25 56.00 56.13 55.77 55.88
24.79 24.36 24.91 26.41 26.25 26.64 24.49 24.60 25.72 27.75 31.22 30.40 30.75 30.88 32.08 32.46 33.22 34.08 34.83 35.46 36.93 38.27 39.12 41.01 43.13 46.70 48.95 50.00 53.60 61.45 64.92 66.53 66.53 66.92 66.88 67.49 67.35 66.51 65.92 65.46 64.73 63.61 61.72 59.47 56.27 55.22 53.66 54.16 53.80
25.45 20.90 23.24 24.61 25.28 24.05 26.08 21.42 22.34 28.92 30.29 28.78 29.47 30.64 31.65 32.61 33.97 33.69 35.18 35.55 36.98 38.12 39.59 40.44 42.77 46.74 48.52 50.66 53.93 57.20 63.51 64.82 65.76 66.33 66.67 66.67 66.58 65.73 65.28 64.39 63.05 60.80 59.69 55.80 54.67 52.20 51.28 49.94 50.74
21.37 20.76 15.26 23.75 23.98 24.48 23.61 16.72 25.52 29.43 28.43 27.63 29.10 30.10 30.99 32.30 33.53 35.01 35.98 36.40 37.31 38.04 39.18 41.10 43.33 45.39 47.46 49.21 51.73 56.76 62.11 64.25 64.65 65.43 65.71 65.53 65.10 64.97 64.49 62.74 60.60 59.19 55.91 52.86 51.39 50.18 49.31 47.98 47.95
18.63 12.94 14.13 18.07 24.12 23.41 21.52 18.37 25.18 28.99 28.28 27.06 28.57 29.94 31.09 32.17 33.92 35.37 36.19 36.39 37.12 37.86 38.51 39.75 42.80 45.12 46.37 48.49 51.29 53.65 58.73 63.04 64.04 64.10 64.46 64.59 63.99 63.00 62.79 60.63 58.40 55.31 53.09 50.25 48.88 47.51 47.65 45.54 43.27
13.52 12.48 15.27 14.98 21.32 22.27 19.96 19.08 23.90 26.82 27.00 26.72 28.12 29.28 29.92 30.89 32.51 35.22 36.55 37.27 37.33 37.65 38.43 39.09 40.46 43.04 45.13 46.86 49.89 53.72 56.38 61.69 63.23 63.43 63.01 62.24 62.38 62.12 61.46 59.10 53.73 52.20 49.21 46.52 46.52 44.55 45.02 44.20 43.14
17.87 15.58 13.68 17.50 22.14 20.15 19.00 19.05 21.53 25.61 26.03 25.46 25.62 25.68 25.82 27.51 30.81 32.10 33.87 35.60 36.57 37.24 37.30 37.98 38.40 40.56 43.12 43.82 46.26 49.39 53.58 60.53 61.38 62.73 62.51 62.10 61.43 60.50 59.17 54.91 53.60 51.92 48.80 46.66 45.44 44.84 43.10 41.77 42.61
18.08 15.27 14.59 18.94 22.64 20.56 19.01 18.21 22.38 24.10 23.85 23.35 23.36 23.27 24.02 25.37 26.81 29.01 31.44 33.51 33.92 34.05 35.73 37.07 37.91 40.01 42.25 43.53 45.79 50.52 56.55 60.17 60.56 61.22 61.14 60.79 59.87 59.75 57.55 54.08 52.58 51.66 48.33 45.96 44.63 44.47 43.16 41.36 43.08
18.08 15.96 15.93 15.62 19.87 20.90 18.10 14.13 18.65 23.12 22.26 23.47 24.14 24.53 24.80 24.38 24.55 26.47 28.62 29.78 32.01 32.81 33.83 35.20 37.23 38.89 41.36 43.77 46.14 50.16 56.31 58.69 58.90 58.69 58.84 59.37 58.83 57.63 55.61 53.65 51.91 49.64 48.22 45.93 45.17 44.78 44.22 41.01 42.38
12.98 20.28 19.46 17.28 13.68 7.11 17.04 4.76 15.35 19.23 19.41 20.28 21.71 22.33 22.87 23.44 24.69 25.68 26.43 27.36 29.27 32.22 34.30 34.49 35.95 38.00 40.37 43.31 44.44 45.93 50.30 53.96 56.97 57.98 58.59 58.46 58.25 57.60 55.34 53.57 51.43 49.78 48.48 46.09 45.69 45.61 44.73 43.69 41.72
13.79 20.18 17.25 16.14 11.83 11.09 9.78 7.69 11.79 16.13 14.99 16.67 19.40 21.43 22.02 22.88 23.47 23.46 24.55 26.68 29.00 31.46 33.02 33.70 34.45 36.42 38.83 41.80 45.74 47.66 50.45 55.42 56.54 57.45 56.79 56.69 56.83 56.59 54.70 53.79 51.51 50.02 49.60 47.27 45.91 45.09 44.60 44.62 43.47
20.39 13.35 14.61 4.32 1.23 -2.60 5.31 8.41 10.57 12.96 14.46 15.70 18.51 19.43 20.44 20.99 21.85 22.82 24.65 26.17 27.33 31.03 32.46 32.38 34.15 35.53 37.38 40.37 45.35 49.79 51.78 54.54 55.05 55.77 54.97 54.52 54.76 53.74 52.90 52.35 51.56 50.40 49.88 47.54 46.04 45.29 44.45 44.76 44.49
7.18 1.68 -5.58 -7.03 -9.45 -4.62 11.34 10.13 12.31 15.04 16.70 16.45 16.16 17.53 19.12 20.22 20.34 21.16 22.24 23.72 25.91 29.70 31.87 32.20 34.06 36.58 40.05 39.82 43.87 49.56 52.70 55.02 54.57 54.63 54.24 53.33 52.60 51.99 51.89 51.34 49.90 49.05 48.40 47.82 47.09 45.42 43.86 44.06 43.14
3.48 4.60 3.60 -2.80 -7.26 2.60 12.52 2.01 10.02 16.98 19.48 20.67 19.71 18.72 18.87 18.70 19.95 20.52 21.81 23.40 24.92 26.64 30.61 31.36 31.82 34.74 38.99 42.52 44.51 49.96 53.14 54.91 55.42 55.04 53.91 53.35 52.27 51.63 51.85 51.11 50.32 49.23 47.94 46.70 46.06 45.06 44.50 43.48 43.24
1.44 6.46 13.47 9.29 -11.86 -4.80 1.99 10.10 16.05 19.24 18.32 18.26 16.81 17.33 16.38 17.49 18.86 19.65 21.08 22.73 23.97 25.69 28.57 30.46 31.79 33.97 37.51 41.18 47.06 51.09 53.79 54.58 54.29 53.68 53.16 52.47 52.29 51.08 50.50 49.54 48.52 47.87 47.06 46.72 46.14 44.74 43.06 42.73 42.14
11.98 17.55 4.41 7.20 -3.63 -8.97 -1.08 3.85 5.21 9.52 11.96 14.67 12.50 15.04 15.31 16.90 17.73 18.58 20.02 21.78 23.05 25.11 28.41 29.86 31.50 33.25 35.14 38.60 48.41 51.66 53.85 54.04 54.61 53.41 52.82 52.49 51.83 50.69 49.53 47.62 46.51 45.95 46.12 45.83 45.46 42.91 40.60 41.82 40.51
3.88 4.62 12.70 15.29 6.42 -2.63 -3.58 1.10 6.22 5.80 10.07 12.40 13.29 15.06 14.98 16.13 16.57 17.78 18.97 20.99 22.13 23.48 25.37 27.00 29.30 30.94 32.64 35.54 41.39 48.93 50.11 52.23 52.85 52.47 51.95 50.70 47.89 48.27 48.37 47.06 42.43 41.76 41.04 41.85 44.09 43.47 42.20 42.51 41.78
8.89 4.94 13.52 8.25 4.24 5.83 6.33 5.60 7.64 9.48 13.38 15.83 14.17 14.50 15.66 16.67 16.89 17.72 18.02 19.48 19.96 21.04 22.21 23.85 27.05 28.32 31.50 33.64 36.19 39.19 40.26 41.73 45.42 49.39 47.76 47.71 46.73 46.87 44.78 44.79 43.69 42.34 43.36 43.64 44.15 42.25 41.95 41.55 39.49
MSLP
1015.96 1016.07 1015.99 1016.08 1017.11 1017.41 1015.97 1014.77 1013.76 1013.17 1012.70 1011.74 1011.35 1011.31 1010.68 1010.03 1009.52 1008.57 1007.61 1007.68 1007.24 1006.86 1006.76 1006.59 1006.36 1006.58 1006.65 1006.94 1007.43 1007.74 1008.25 1008.68 1009.19 1009.54 1009.89 1010.54 1010.90 1011.16 1011.92 1012.28 1012.62 1013.17 1013.73 1013.88 1014.03 1014.83 1015.17 1015.59 1016.11
1016.08 1015.90 1016.29 1017.13 1017.35 1016.89 1013.91 1013.22 1012.85 1012.13 1011.53 1011.21 1011.08 1011.07 1010.64 1009.59 1009.11 1007.82 1007.47 1007.85 1007.69 1007.05 1006.50 1006.57 1006.57 1006.45 1006.85 1006.75 1007.12 1007.54 1007.96 1008.42 1008.91 1009.31 1009.68 1010.21 1010.76 1010.96 1011.62 1012.14 1012.55 1012.92 1013.43 1014.00 1014.12 1014.47 1015.22 1015.47 1015.93
1015.82 1016.21 1016.88 1017.32 1016.92 1015.08 1012.29 1012.34 1012.24 1012.03 1011.46 1011.12 1011.19 1010.62 1010.32 1009.54 1008.98 1008.68 1008.71 1008.18 1007.30 1007.11 1006.82 1006.58 1006.62 1006.53 1006.71 1006.82 1006.97 1007.45 1007.88 1008.29 1008.73 1009.12 1009.49 1009.88 1010.51 1010.99 1011.32 1012.01 1012.54 1012.75 1013.24 1013.73 1014.23 1014.51 1015.10 1015.60 1015.83
1016.31 1017.01 1017.71 1017.03 1015.46 1012.26 1011.82 1012.54 1012.12 1011.90 1011.49 1011.60 1011.44 1011.06 1010.38 1009.22 1009.49 1009.99 1009.12 1008.41 1007.48 1007.20 1007.18 1006.90 1006.85 1006.80 1006.69 1006.81 1006.67 1007.07 1007.63 1008.20 1008.60 1009.05 1009.39 1009.68 1010.13 1010.83 1011.19 1011.71 1012.42 1012.68 1013.06 1013.47 1014.08 1014.69 1015.08 1015.53 1015.84
1017.32 1017.72 1017.71 1016.66 1013.93 1011.96 1012.26 1012.24 1012.01 1012.22 1012.19 1011.80 1011.73 1011.23 1010.24 1009.56 1009.72 1009.77 1009.54 1009.64 1009.37 1008.24 1007.80 1007.34 1007.05 1006.88 1006.65 1006.79 1006.56 1006.51 1006.86 1007.56 1008.10 1008.61 1009.14 1009.53 1009.86 1010.45 1011.08 1011.43 1012.05 1012.62 1012.85 1013.31 1013.76 1014.54 1015.19 1015.46 1015.78
1018.11 1018.28 1017.86 1015.90 1013.77 1011.72 1012.53 1012.25 1012.41 1012.45 1012.36 1012.27 1011.93 1011.61 1010.16 1010.47 1010.40 1010.97 1010.32 1009.86 1009.98 1009.23 1008.30 1007.64 1007.28 1006.94 1006.64 1006.76 1006.73 1006.41 1006.48 1006.87 1007.44 1007.98 1008.62 1009.25 1009.68 1010.08 1010.70 1011.13 1011.70 1012.37 1012.78 1013.15 1013.64 1014.43 1015.07 1015.44 1015.77
1017.92 1018.38 1017.07 1015.87 1013.83 1012.77 1013.21 1012.90 1013.21 1013.46 1013.64 1013.17 1012.91 1011.74 1010.59 1010.75 1011.43 1011.42 1010.98 1010.49 1009.81 1009.79 1008.63 1007.93 1007.40 1007.00 1006.64 1006.69 1006.76 1006.76 1006.44 1006.49 1006.85 1007.42 1008.02 1008.67 1009.28 1009.77 1010.19 1010.83 1011.36 1012.03 1012.53 1013.08 1013.48 1014.25 1014.96 1015.34 1015.79
1018.19 1018.29 1017.25 1015.94 1014.67 1013.63 1014.05 1014.09 1014.25 1014.55 1014.40 1014.10 1013.28 1012.00 1011.60 1011.90 1011.99 1011.53 1011.27 1011.04 1010.57 1010.35 1009.56 1008.68 1007.80 1007.37 1006.72 1006.15 1006.31 1006.64 1006.70 1006.63 1006.74 1007.05 1007.47 1008.11 1008.73 1009.24 1009.81 1010.41 1010.93 1011.55 1012.19 1012.63 1013.33 1014.09 1014.67 1015.32 1015.69
1018.19 1018.45 1017.06 1016.47 1016.08 1014.66 1015.06 1015.57 1015.31 1015.49 1015.38 1014.74 1013.94 1012.96 1012.42 1012.71 1012.41 1011.34 1010.70 1010.12 1009.99 1009.49 1009.84 1009.12 1008.53 1007.85 1007.03 1006.13 1005.77 1006.16 1006.43 1006.57 1006.79 1006.98 1007.26 1007.77 1008.39 1009.08 1009.59 1010.05 1010.67 1011.21 1011.76 1012.32 1012.85 1013.94 1014.42 1015.10 1015.83
1018.72 1018.68 1017.64 1016.82 1016.63 1016.27 1015.99 1016.50 1016.53 1016.08 1015.26 1013.65 1013.71 1012.77 1012.74 1012.78 1012.59 1012.35 1011.72 1011.02 1010.59 1009.78 1008.96 1009.30 1008.76 1008.02 1007.29 1006.48 1005.64 1005.67 1006.02 1005.93 1006.31 1006.79 1007.06 1007.48 1007.99 1008.55 1009.21 1009.75 1010.30 1010.81 1011.53 1012.00 1012.55 1013.61 1014.48 1015.15 1015.73
1018.99 1018.44 1017.97 1017.28 1016.99 1016.99 1016.58 1016.59 1016.58 1016.16 1014.63 1014.51 1013.64 1012.51 1012.72 1012.50 1012.31 1011.98 1011.50 1011.15 1010.67 1009.97 1009.22 1008.93 1008.69 1007.98 1007.61 1006.81 1005.59 1005.41 1005.43 1005.78 1006.00 1006.18 1006.60 1006.96 1007.50 1008.04 1008.96 1009.43 1010.18 1010.68 1011.31 1012.15 1012.77 1013.68 1014.40 1014.96 1015.53
1019.70 1018.77 1018.49 1017.86 1017.43 1017.28 1016.77 1016.16 1015.95 1015.86 1013.83 1014.10 1013.01 1012.31 1011.80 1012.12 1011.93 1011.55 1010.85 1010.38 1009.96 1009.48 1008.55 1008.32 1008.35 1007.85 1007.44 1007.02 1005.82 1005.01 1005.02 1005.18 1005.55 1005.76 1006.05 1006.70 1006.99 1007.76 1008.59 1009.22 1009.77 1010.38 1011.03 1011.75 1012.40 1013.47 1014.40 1015.01 1015.41
1019.76 1018.98 1018.39 1017.77 1017.20 1016.82 1016.62 1015.78 1015.32 1014.23 1013.28 1012.74 1012.13 1012.03 1011.28 1011.24 1011.04 1010.95 1010.47 1009.93 1009.57 1008.73 1008.09 1007.36 1007.68 1007.41 1007.06 1006.69 1005.96 1004.75 1004.68 1004.70 1004.89 1005.26 1005.54 1005.95 1006.55 1007.24 1007.73 1008.51 1009.26 1009.87 1010.65 1011.32 1012.40 1013.35 1014.17 1015.12 1015.74
1019.37 1019.00 1018.19 1017.29 1016.46 1016.56 1016.93 1015.77 1015.67 1013.10 1012.09 1011.79 1011.54 1011.17 1010.75 1010.28 1010.20 1009.89 1009.69 1008.88 1008.63 1008.05 1007.44 1007.08 1006.68 1006.47 1006.48 1006.10 1005.59 1004.70 1004.24 1003.87 1004.21 1004.39 1005.04 1005.19 1005.70 1006.51 1007.46 1007.83 1008.54 1009.41 1010.01 1011.17 1012.11 1013.09 1013.96 1014.91 1015.50
1019.55 1019.48 1018.57 1016.92 1016.29 1016.67 1016.64 1015.61 1014.39 1012.28 1011.34 1011.60 1011.29 1010.70 1010.05 1009.33 1009.17 1009.06 1008.60 1008.04 1007.76 1007.16 1006.78 1006.44 1006.06 1005.73 1005.55 1005.18 1004.98 1004.46 1003.66 1003.38 1003.62 1003.87 1004.25 1004.65 1004.96 1005.67 1006.75 1007.33 1007.93 1008.73 1009.50 1010.81 1012.07 1013.11 1013.97 1014.86 1015.66
1019.88 1019.83 1018.63 1016.06 1016.03 1016.24 1016.53 1014.92 1013.05 1011.80 1011.59 1011.34 1010.49 1009.81 1009.36 1008.66 1008.04 1007.67 1007.34 1007.14 1006.95 1006.42 1005.95 1005.66 1005.43 1004.95 1004.41 1004.24 1004.28 1003.91 1003.20 1002.63 1002.78 1003.19 1003.66 1003.95 1004.37 1004.80 1005.94 1006.83 1007.55 1008.29 1009.28 1010.26 1011.64 1012.61 1013.90 1014.74 1015.36
1019.84 1019.25 1018.26 1016.39 1015.97 1015.91 1015.98 1014.08 1012.37 1010.90 1011.75 1011.15 1009.71 1009.00 1008.51 1007.74 1006.99 1006.69 1006.61 1006.21 1006.00 1005.67 1005.26 1004.76 1004.61 1004.26 1003.75 1003.41 1003.41 1003.19 1002.79 1002.09 1002.10 1002.60 1002.82 1003.30 1004.08 1004.31 1005.18 1006.21 1007.16 1008.36 1009.32 1010.42 1011.61 1012.25 1012.98 1014.37 1015.69
1018.98 1018.95 1017.62 1016.42 1015.40 1015.62 1014.96 1012.98 1011.70 1009.99 1011.47 1010.03 1009.13 1008.47 1007.99 1007.45 1006.53 1006.20 1005.99 1005.46 1005.07 1004.79 1004.51 1004.22 1004.00 1003.55 1003.20 1002.78 1002.52 1002.37 1002.10 1001.30 1001.24 1001.52 1002.18 1002.78 1003.33 1003.87 1004.80 1005.85 1006.84 1007.78 1009.04 1010.22 1012.05 1012.46 1013.55 1014.24 1015.46
1018.48 1017.93 1016.82 1015.41 1014.83 1015.48 1013.61 1012.51 1009.84 1009.98 1010.21 1009.18 1009.00 1008.76 1008.43 1007.91 1007.36 1006.93 1006.29 1005.58 1004.65 1003.95 1003.62 1003.39 1003.26 1002.63 1002.61 1002.17 1001.73 1001.47 1001.00 1000.47 1000.32 1000.61 1001.20 1001.87 1003.02 1003.62 1004.14 1005.25 1006.43 1007.23 1008.15 1009.31 1011.21 1013.76 1012.76 1015.02 1016.73
1017.86 1017.11 1015.84 1015.19 1014.55 1014.40 1013.10 1011.17 1009.53 1009.29 1009.01 1009.06 1009.09 1009.10 1008.83 1008.05 1007.32 1006.96 1006.35 1005.74 1005.04 1004.39 1003.33 1002.58 1002.16 1001.80 1001.40 1000.98 1000.49 1000.45 999.81 999.35 999.48 1000.05 1000.55 1001.27 1002.32 1003.18 1004.18 1004.81 1005.52 1006.93 1008.39 1009.52 1009.47 1012.23 1013.39 1014.62 1016.15
1016.90 1016.57 1015.49 1015.25 1014.18 1013.85 1013.02 1010.86 1008.46 1008.27 1008.48 1008.73 1009.04 1009.15 1008.97 1008.49 1007.45 1006.69 1006.06 1005.62 1004.72 1003.84 1003.13 1002.13 1001.27 1000.79 1000.34 999.91 999.70 999.26 999.15 998.79 998.95 999.19 999.77 1000.51 1001.54 1002.77 1003.05 1005.10 1005.33 1006.11 1007.18 1007.80 1009.57 1010.74 1012.69 1013.24 1015.21
1016.45 1015.84 1015.66 1015.39 1015.20 1014.33 1013.93 1012.65 1007.17 1007.87 1008.35 1008.75 1008.96 1009.02 1008.77 1008.35 1007.50 1006.74 1005.90 1004.91 1004.46 1003.35 1002.50 1001.80 1000.59 999.87 999.54 999.10 998.76 998.20 998.19 997.94 997.61 998.14 998.97 999.81 1000.85 1001.84 1002.89 1004.25 1004.86 1005.80 1006.62 1007.78 1008.97 1009.63 1010.56 1011.83 1014.02
1016.41 1016.19 1016.18 1015.96 1015.58 1015.21 1013.98 1013.91 1008.84 1008.70 1008.94 1009.48 1009.43 1009.14 1008.88 1008.47 1007.72 1006.69 1005.81 1004.69 1003.65 1002.73 1001.63 1000.92 999.89 998.75 998.44 998.08 997.65 997.29 997.26 997.08 997.42 997.56 998.58 999.52 1000.38 1001.64 1002.61 1003.71 1004.74 1005.59 1006.03 1007.14 1008.32 1009.01 1010.19 1010.88 1012.53
1016.82 1017.04 1016.72 1017.03 1016.92 1016.26 1013.74 1013.13 1008.59 1009.17 1009.63 1009.61 1009.47 1009.25 1008.76 1008.22 1007.56 1006.75 1005.74 1004.61 1003.27 1001.93 1000.80 1000.11 999.29 997.95 997.42 997.03 996.54 996.25 996.08 996.26 996.99 996.43 997.96 998.81 999.91 1000.76 1002.22 1003.15 1003.98 1005.02 1005.70 1006.96 1007.44 1007.83 1008.99 1010.07 1011.35
1017.85 1018.68 1018.81 1018.62 1018.18 1016.44 1013.92 1012.85 1009.90 1009.45 1009.57 1009.66 1009.34 1008.93 1008.54 1008.09 1007.44 1006.46 1005.29 1004.03 1002.75 1001.31 1000.09 999.26 998.47 997.09 996.58 996.08 995.51 995.11 995.15 995.35 995.91 996.35 996.95 998.28 999.33 1000.24 1001.84 1002.89 1003.65 1004.65 1005.23 1006.84 1007.52 1008.37 1008.50 1009.58 1010.50
1018.37 1019.22 1019.39 1018.98 1018.45 1015.65 1013.90 1012.11 1009.57 1009.37 1009.52 1009.64 1009.54 1009.01 1008.53 1007.78 1007.03 1006.16 1005.09 1003.85 1002.51 1001.18 999.79 998.75 997.92 996.71 995.95 995.41 994.52 994.02 994.22 994.73 995.56 996.11 996.73 997.76 998.77 999.68 1001.28 1002.52 1003.40 1004.21 1005.66 1006.63 1007.74 1008.66 1009.16 1009.54 1010.52
1018.56 1018.70 1017.72 1017.84 1017.61 1017.00 1013.78 1011.54 1009.67 1009.55 1009.51 1009.66 1009.64 1009.11 1008.57 1008.09 1007.11 1006.04 1004.86 1003.68 1002.44 1000.95 999.57 998.42 997.40 996.36 995.45 994.62 993.69 993.16 993.46 994.30 995.15 995.90 996.80 997.45 998.61 999.39 1001.13 1002.36 1003.39 1003.98 1004.94 1006.63 1007.46 1008.77 1009.49 1009.88 1010.52
1017.36 1017.51 1017.53 1017.33 1017.24 1016.46 1013.98 1012.23 1011.04 1010.52 1010.57 1010.45 1010.11 1009.75 1009.15 1008.32 1007.20 1006.12 1005.01 1003.73 1002.41 1001.04 999.57 998.21 996.99 996.08 995.10 994.17 993.07 992.28 992.92 994.09 994.99 995.85 996.54 997.31 998.56 999.30 1000.58 1001.72 1003.32 1004.17 1005.19 1006.00 1007.22 1008.30 1009.32 1009.91 1010.58
1017.77 1017.56 1017.36 1016.51 1016.47 1016.20 1014.48 1012.21 1011.12 1011.51 1011.56 1011.05 1010.61 1010.13 1009.43 1008.49 1007.58 1006.51 1005.30 1004.01 1002.71 1001.28 999.86 998.38 997.13 996.22 995.09 994.01 992.96 992.07 993.03 994.09 994.85 995.64 996.62 997.62 998.40 999.33 1000.11 1001.19 1001.70 1004.10 1005.16 1005.56 1007.13 1007.70 1008.55 1009.58 1010.68
1017.69 1017.64 1017.13 1016.40 1016.37 1015.93 1015.08 1011.52 1011.02 1011.33 1011.47 1011.47 1010.97 1010.41 1009.75 1009.01 1008.08 1006.92 1005.72 1004.48 1003.16 1001.83 1000.41 998.93 997.88 996.57 995.65 994.59 993.45 992.91 993.47 994.52 995.22 995.87 996.90 997.64 998.59 999.58 1000.38 1001.37 1002.38 1003.28 1004.88 1005.45 1006.48 1007.09 1008.13 1008.70 1009.88
Wind_Speed
7 4 2 4 3 3 5 9 3 5 3 5 6 5 9 4 6 5 1 11 11 6 6 10 17 21 23 22 21 22 21 19 19 21 23 23 23 24 23 22 22 21 20 20 21 19 20 18 18
3 1 4 2 3 3 10 8 13 12 6 2 2 3 3 8 4 10 4 19 14 10 5 9 14 19 20 22 21 22 22 20 20 20 24 23 23 24 24 23 22 22 21 20 19 21 20 19 19
1 3 4 3 4 14 15 7 12 6 9 2 4 2 3 4 4 6 14 17 19 15 9 7 11 18 20 21 21 21 21 20 19 19 23 24 24 24 24 23 23 23 22 21 19 22 20 19 20
2 3 3 4 18 23 13 5 3 1 1 2 1 8 5 5 2 9 17 22 22 21 15 8 10 17 19 21 22 22 22 21 20 19 22 24 25 24 24 24 23 22 22 21 20 19 20 19 19
3 2 3 5 19 22 5 2 2 2 3 4 2 5 7 6 12 21 21 18 19 19 17 12 9 15 19 21 23 24 25 25 22 20 21 24 25 25 24 24 24 22 22 21 21 20 21 20 20
2 1 2 11 24 25 0 3 3 5 6 4 4 7 17 8 22 20 21 23 17 18 17 15 11 11 13 20 21 23 25 26 25 23 22 23 24 25 24 24 24 22 22 22 21 20 20 19 19
5 3 7 9 21 16 2 3 3 3 4 2 11 7 3 7 16 18 18 20 21 18 17 15 15 12 14 11 15 19 23 25 26 25 23 23 23 24 24 24 24 23 22 21 22 19 19 19 18
4 3 5 6 17 23 3 6 3 5 4 12 5 6 5 9 19 19 17 16 15 15 14 16 16 13 13 12 12 13 17 18 23 24 23 21 19 20 20 20 23 25 23 23 22 19 21 18 18
2 1 8 7 5 11 7 10 2 2 12 7 6 14 14 19 19 24 23 22 19 17 13 14 14 16 17 17 14 14 16 16 15 17 18 16 14 16 17 20 21 24 24 23 23 20 19 16 15
3 4 8 5 1 5 12 4 10 8 17 23 18 18 16 17 18 17 19 22 22 24 22 14 15 15 16 13 11 7 13 13 13 15 17 13 15 14 15 17 20 21 20 22 24 20 15 14 11
2 7 3 3 2 3 12 15 5 5 18 16 19 23 20 19 16 18 18 18 20 22 18 16 14 15 15 11 10 8 7 9 10 18 14 15 12 10 10 9 10 11 14 10 13 12 9 12 9
4 7 8 4 2 6 13 11 9 14 25 17 22 23 23 20 18 17 18 19 19 19 22 18 14 14 15 10 10 10 9 9 8 12 14 11 9 10 10 9 11 10 10 12 11 8 9 11 11
6 5 8 9 13 9 8 16 19 24 23 22 22 20 23 20 19 17 19 19 20 21 22 21 15 14 13 14 10 11 12 9 9 10 13 11 11 11 11 11 11 11 10 10 9 9 10 10 11
2 7 14 14 20 15 12 17 13 20 24 24 18 18 18 19 20 19 19 20 19 20 22 22 18 15 12 13 14 12 12 12 10 9 9 15 12 11 11 11 12 11 11 10 10 11 10 9 10
4 7 13 21 16 9 2 13 18 27 27 18 19 22 22 24 20 20 20 21 20 19 21 21 20 15 14 12 12 11 11 11 9 10 13 14 15 13 13 11 11 11 11 13 11 10 9 9 8
3 2 6 16 3 5 9 22 27 23 19 20 24 22 21 24 25 23 22 21 20 20 19 21 18 19 15 12 11 11 11 11 10 10 10 12 12 16 14 11 11 11 10 11 11 12 10 9 9
4 6 9 17 9 6 8 15 22 27 13 21 27 25 23 24 24 21 20 20 20 20 21 21 19 17 16 12 10 11 15 12 10 8 9 12 15 13 13 11 10 12 10 10 10 10 12 11 8
9 7 12 15 6 8 20 28 29 30 18 23 23 21 20 20 22 19 19 19 19 19 19 18 16 19 19 12 8 8 10 12 13 12 10 11 10 16 14 11 13 13 11 11 8 8 6 8 10
12 16 21 24 21 17 24 25 31 21 16 22 11 6 9 11 13 15 14 15 16 18 20 22 20 21 15 12 9 8 11 11 11 11 14 15 12 13 13 12 13 13 14 17 15 9 15 6 5
15 20 24 23 17 11 19 29 26 22 16 6 2 5 9 14 14 15 15 14 14 16 18 21 20 20 16 12 10 8 8 10 10 10 12 14 13 16 12 15 15 16 13 16 19 15 11 6 8
16 17 19 20 20 12 20 20 18 5 5 2 1 5 7 12 16 17 16 16 16 17 17 18 20 20 18 17 12 9 8 10 9 10 10 13 17 15 15 14 13 16 13 16 21 22 15 12 9
15 9 14 15 13 8 5 14 32 7 5 3 9 11 13 16 17 17 19 19 17 19 16 18 20 18 16 17 13 16 11 12 10 11 10 12 16 17 17 16 15 13 14 17 16 17 16 13 15
11 7 11 16 17 13 6 7 6 4 4 5 10 15 14 15 17 19 20 20 20 20 15 15 18 17 17 15 14 11 14 11 7 10 13 11 12 13 15 17 16 15 12 16 20 19 18 15 15
6 6 13 4 2 0 6 8 14 3 2 6 11 13 16 16 18 18 18 19 17 17 11 13 15 14 15 16 16 16 16 14 8 14 13 10 10 10 12 13 14 14 9 15 16 19 20 18 15
8 8 6 8 5 7 4 9 14 2 2 5 11 14 14 15 15 17 19 18 17 18 15 13 14 13 12 16 16 16 16 16 17 12 12 13 10 9 12 12 12 11 12 11 13 14 14 14 12
3 7 3 7 4 16 10 8 7 5 3 9 11 15 15 16 16 17 18 18 16 18 15 13 16 15 12 13 16 15 15 11 10 13 10 10 11 12 13 12 13 14 10 12 10 9 10 9 7
5 4 5 6 1 3 4 8 5 7 12 15 16 17 17 18 17 19 19 17 16 16 15 13 12 12 12 13 14 14 12 13 13 12 14 12 11 11 12 13 13 14 17 12 13 9 6 6 5
6 2 5 1 5 7 6 7 7 6 11 14 14 14 15 16 17 17 17 16 15 16 13 12 9 9 8 9 12 12 13 12 14 13 13 12 12 15 16 14 11 12 14 16 15 10 5 6 4
4 3 5 5 3 3 7 7 5 4 7 12 13 14 15 16 16 16 16 15 15 16 14 12 10 9 6 6 3 11 9 11 13 12 10 11 9 12 15 15 18 11 10 14 11 14 13 13 10
4 6 5 2 5 6 7 16 5 6 6 7 13 14 14 14 15 15 16 15 16 16 16 14 11 10 9 6 10 7 13 8 8 11 11 12 11 10 12 12 13 15 13 13 15 14 14 15 13
Wind_Direction
344 346 35 40 93 61 245 236 199 205 206 206 155 171 203 209 177 208 79 16 334 307 302 219 198 195 186 185 182 176 176 174 177 179 177 176 171 167 167 164 161 162 163 161 155 155 144 140 137
331 358 43 79 130 214 244 186 214 208 196 130 222 200 235 250 273 286 47 344 341 317 281 226 206 198 192 184 181 178 177 177 178 181 179 176 175 170 169 166 165 165 164 164 162 152 147 143 139
86 53 110 155 197 229 250 169 220 229 248 255 310 231 228 236 269 331 343 347 348 356 319 249 218 206 195 187 181 179 180 181 179 181 180 176 175 174 170 167 169 167 167 165 166 153 152 148 145
73 19 31 169 232 247 247 98 107 48 350 218 222 270 289 223 320 20 344 357 354 353 339 298 241 220 206 193 182 179 179 186 182 181 181 178 175 176 172 168 170 170 169 169 166 157 156 153 149
29 63 193 241 246 259 230 150 112 204 268 209 158 258 251 9 3 9 358 353 348 344 339 315 280 238 215 202 192 182 179 184 185 182 183 183 178 176 174 170 171 173 170 169 164 158 165 156 153
81 100 191 233 241 247 289 192 196 213 220 280 243 236 260 57 24 349 352 343 343 336 341 326 299 257 249 216 205 192 185 185 185 183 184 183 181 177 175 173 173 174 174 169 159 163 163 160 155
143 144 235 258 259 280 58 30 352 16 335 328 317 261 268 26 355 351 345 340 339 338 342 340 318 279 250 242 222 207 194 189 187 185 185 184 182 179 177 175 175 175 174 169 160 168 164 161 156
128 150 258 244 263 277 0 5 53 42 289 327 338 265 301 334 339 331 328 328 325 329 336 337 337 316 263 239 218 218 211 200 193 187 185 187 187 183 182 178 175 175 173 168 159 169 172 162 153
101 247 255 252 220 263 29 3 353 313 278 257 268 279 295 310 326 323 322 320 322 319 326 331 324 323 307 256 224 215 213 206 203 193 185 180 189 188 183 181 176 176 172 168 157 170 165 152 146
163 217 236 205 31 302 308 316 316 306 292 281 288 278 287 304 310 304 306 306 307 306 308 315 318 317 314 286 240 215 224 215 207 201 196 190 191 188 183 182 179 176 171 168 161 161 144 145 154
237 235 332 298 286 297 300 296 225 279 281 279 284 291 289 288 289 289 286 283 286 291 290 297 305 309 308 307 249 230 223 223 213 211 204 199 190 189 189 185 185 176 170 163 158 143 154 158 156
272 259 246 237 246 291 283 295 284 259 265 278 271 272 282 279 277 274 277 282 283 281 280 286 290 296 300 298 290 239 228 213 215 220 205 193 192 186 185 189 176 173 168 166 157 152 156 160 159
223 256 260 267 281 257 268 289 284 285 280 273 267 277 282 281 278 274 273 273 278 277 279 277 277 277 287 291 291 257 236 216 205 215 215 199 194 188 181 181 177 169 166 159 145 153 154 156 150
265 310 306 309 298 296 297 292 325 279 277 279 298 289 277 273 269 271 269 267 264 271 273 278 266 262 267 278 277 270 242 229 214 204 216 204 195 190 188 178 178 177 162 157 150 165 156 154 148
308 312 309 280 272 281 124 288 264 265 272 288 283 280 278 278 276 259 258 263 265 264 270 272 273 255 255 258 271 271 250 229 218 211 207 212 196 187 185 180 174 167 164 146 153 149 145 140 142
276 220 270 270 50 233 164 268 266 268 274 284 278 273 272 269 266 266 261 257 258 261 260 267 265 258 247 251 267 268 252 226 218 215 206 199 198 181 181 176 184 167 160 153 155 157 151 147 148
221 254 234 282 191 240 190 263 259 263 287 280 273 274 274 275 271 266 267 262 258 260 264 263 260 253 249 247 251 264 264 233 212 205 198 194 189 183 178 169 169 158 151 150 152 159 157 146 133
256 223 256 258 260 307 278 270 271 272 271 265 270 276 280 283 286 293 277 270 262 255 256 265 267 260 253 243 243 255 258 240 214 203 200 181 184 179 177 170 153 151 143 134 125 127 102 124 137
271 269 268 273 277 269 269 270 267 279 275 274 296 337 325 313 314 321 332 322 288 262 258 261 263 256 247 246 240 246 252 227 210 202 193 183 176 179 178 151 160 161 159 150 142 150 114 85 141
247 260 268 276 277 267 284 276 278 280 267 178 267 307 310 311 315 312 317 312 297 300 288 264 255 256 245 236 234 229 242 218 206 198 179 168 172 172 174 163 166 165 149 144 136 142 154 101 210
255 257 272 271 295 288 274 282 273 259 165 159 281 276 297 305 313 314 310 306 299 288 288 280 261 250 247 239 234 229 250 221 199 185 175 177 171 172 159 180 168 155 152 160 163 155 180 146 190
277 245 262 284 305 282 67 294 291 290 204 360 344 327 325 322 314 311 306 302 294 288 284 282 267 248 250 241 234 228 228 219 213 192 178 171 168 173 165 162 160 166 158 157 166 165 159 150 174
241 329 286 283 280 297 256 229 271 124 231 329 320 322 317 310 310 308 305 300 297 288 280 280 281 247 246 242 228 220 220 218 212 180 173 170 163 162 162 165 163 166 168 165 169 164 170 170 174
337 344 315 38 70 359 240 193 288 275 283 301 314 315 314 313 313 305 300 300 299 288 275 284 281 264 249 242 230 216 214 206 188 168 168 162 161 145 154 160 164 159 164 172 173 169 171 178 181
50 41 326 348 357 229 283 291 262 167 251 276 313 320 320 317 314 311 311 310 306 308 295 291 279 275 261 243 230 212 214 195 189 183 162 157 154 148 157 156 162 165 151 172 174 179 171 179 180
204 156 201 286 276 294 282 240 265 188 183 344 336 323 324 327 325 319 315 311 308 309 302 291 280 275 273 255 234 207 201 191 175 176 164 163 162 149 151 151 164 146 145 155 171 178 185 175 170
268 203 206 270 110 3 262 285 262 235 346 344 333 330 334 326 325 324 321 317 316 316 307 298 290 283 276 264 237 197 175 177 162 166 164 155 154 135 148 151 148 142 137 146 156 172 155 134 112
170 270 339 281 304 303 280 278 252 311 328 326 324 328 322 322 329 326 325 323 326 327 312 312 317 294 285 281 235 178 157 170 164 158 163 155 161 157 155 143 142 151 155 154 161 146 144 129 111
349 318 244 254 150 254 303 263 207 237 289 312 325 333 327 328 329 327 329 332 334 334 330 334 347 332 338 331 358 140 122 153 152 150 150 148 131 147 152 161 133 143 155 147 172 168 163 171 173
188 216 230 269 308 253 265 282 183 216 272 329 330 330 331 333 330 333 336 338 349 341 343 347 346 0 359 352 62 72 82 73 132 131 132 136 138 136 131 142 157 152 169 170 177 167 174 167 167